TimeCDT,TemperatureF,Dew PointF,Humidity,Sea Level PressureIn,VisibilityMPH,Wind Direction,Wind SpeedMPH,Gust SpeedMPH,PrecipitationIn,Events,Conditions,WindDirDegrees,DateUTC
12:53 AM,78.1,59.0,52,29.93,10.0,SE,12.7,-,N/A,,Mostly Cloudy,140,2013-07-05 05:53:00
1:53 AM,75.9,59.0,56,29.91,10.0,SE,10.4,-,N/A,,Scattered Clouds,130,2013-07-05 06:53:00
2:53 AM,73.0,59.0,61,29.91,10.0,ESE,9.2,-,N/A,,Clear,120,2013-07-05 07:53:00
3:12 AM,71.6,59.0,64,29.95,10.0,SE,8.1,-,N/A,,Partly Cloudy,130,2013-07-05 08:12:00
3:53 AM,73.0,59.0,61,29.90,10.0,SE,10.4,-,N/A,,Clear,140,2013-07-05 08:53:00
4:53 AM,73.9,59.0,59,29.91,10.0,SE,12.7,-,N/A,,Clear,130,2013-07-05 09:53:00
5:53 AM,75.0,59.0,57,29.91,10.0,SE,18.4,23.0,N/A,,Partly Cloudy,140,2013-07-05 10:53:00
6:53 AM,75.0,59.0,57,29.92,10.0,SE,13.8,-,N/A,,Clear,140,2013-07-05 11:53:00
7:53 AM,75.9,60.1,58,29.94,10.0,SE,12.7,-,N/A,,Clear,140,2013-07-05 12:53:00
8:53 AM,79.0,60.1,52,29.94,10.0,SSE,16.1,20.7,N/A,,Clear,150,2013-07-05 13:53:00
9:53 AM,82.9,59.0,44,29.95,10.0,South,12.7,24.2,N/A,,Clear,180,2013-07-05 14:53:00
10:53 AM,86.0,57.9,38,29.94,10.0,South,11.5,18.4,N/A,,Clear,190,2013-07-05 15:53:00
11:53 AM,90.0,57.0,33,29.93,10.0,South,10.4,20.7,N/A,,Clear,180,2013-07-05 16:53:00
12:53 PM,93.9,55.0,27,29.91,10.0,SSE,15.0,23.0,N/A,,Clear,160,2013-07-05 17:53:00
1:53 PM,96.1,53.1,23,29.88,10.0,South,12.7,21.9,N/A,,Clear,180,2013-07-05 18:53:00
2:53 PM,97.0,52.0,22,29.85,10.0,South,10.4,24.2,N/A,,Clear,170,2013-07-05 19:53:00
3:53 PM,99.0,48.9,18,29.83,10.0,South,15.0,25.3,N/A,,Clear,180,2013-07-05 20:53:00
4:53 PM,100.0,48.0,17,29.81,10.0,SSE,11.5,19.6,N/A,,Scattered Clouds,160,2013-07-05 21:53:00
5:53 PM,98.1,46.9,18,29.79,10.0,SSE,17.3,24.2,N/A,,Clear,150,2013-07-05 22:53:00
6:53 PM,96.1,48.9,20,29.78,10.0,SSE,13.8,21.9,N/A,,Clear,150,2013-07-05 23:53:00
7:53 PM,93.9,48.9,21,29.79,10.0,SE,20.7,24.2,N/A,,Clear,130,2013-07-06 00:53:00
8:53 PM,89.1,55.0,31,29.81,10.0,SE,15.0,-,N/A,,Clear,130,2013-07-06 01:53:00
9:53 PM,86.0,54.0,33,29.83,10.0,SE,13.8,24.2,N/A,,Clear,130,2013-07-06 02:53:00
10:53 PM,84.0,57.0,40,29.86,10.0,SE,12.7,-,N/A,,Clear,140,2013-07-06 03:53:00
11:53 PM,82.9,55.9,39,29.86,10.0,SSE,12.7,-,N/A,,Clear,150,2013-07-06 04:53:00